User: anonymous   Login
Location: Unspecified
(0.0000°N, 0.0000°E)
Time: 19:29:48
(UTC+00:00)
Language:

QIANFAN-64 - Orbit

View from above orbital plane
View from above orbital plane
View from above satellite
View from above satellite

Ground track
Ground track

The orbit is defined by the following mean orbital elements,

1 62794U          26145.56283689 +.00000000 +00000-0 +15019-3 0 00005
2 62794  88.9720  86.0205 0012106 222.7029 137.3182 13.51011951    01
Epoch (UTC): 25 May 2026 13:30:29
Eccentricity: 0.0012106
inclination: 88.9720°
perigee height: 1060 km
apogee height: 1078 km
right ascension of ascending node: 86.0205°
argument of perigee: 222.7029°
revolutions per day: 13.51011951
mean anomaly at epoch: 137.3182°

The dashed part of the orbit path shows where the satellite is in the earth's shadow,  

DLR